DW2004 Weather Reports


Display with metric or nautical units.
time (UTC)temp
F
wind
direction
speed
MPH
gust
MPH
rain 1hr
in
rain 24hr
in
rain mn
in
humidity
%
barometer
mb
20260509232003 89 94 1.0 6.0 0.00 0.00 0.00 47 1008.1
20260509231506 89 87 2.0 8.0 0.00 0.00 0.00 47 1008.1
20260509231002 90 142 2.0 8.0 0.00 0.00 0.00 44 1008.1
20260509230503 90 75 1.0 5.0 0.00 0.00 0.00 42 1008.2
20260509230008 91 115 2.0 5.0 0.00 0.00 0.00 43 1008.1
20260509225502 91 122 1.0 6.0 0.00 0.00 0.00 44 1008.1
20260509225001 91 156 0.0 2.0 0.00 0.00 0.00 43 1008.1
20260509224505 92 157 0.0 6.0 0.00 0.00 0.00 41 1008.0
20260509223501 92 115 0.0 2.0 0.00 0.00 0.00 41 1008.0
20260509222501 91 126 0.0 3.0 0.00 0.00 0.00 43 1008.0
20260509222001 91 126 1.0 3.0 0.00 0.00 0.00 43 1008.0
20260509221505 91 99 1.0 3.0 0.00 0.00 0.00 43 1008.0
20260509221001 91 99 1.0 3.0 0.00 0.00 0.00 44 1008.0
20260509220502 92 99 0.0 2.0 0.00 0.00 0.00 45 1008.0
20260509220007 92 99 0.0 2.0 0.00 0.00 0.00 45 1008.0
20260509215501 91 78 0.0 3.0 0.00 0.00 0.00 43 1008.0
20260509215002 91 78 1.0 3.0 0.00 0.00 0.00 44 1008.1
20260509214505 91 79 1.0 4.0 0.00 0.00 0.00 45 1008.2
20260509214001 91 79 3.0 4.0 0.00 0.00 0.00 43 1008.1
20260509211505 92 5 0.0 2.0 0.00 0.00 0.00 42 1008.4
20260509211001 91 360 0.0 4.0 0.00 0.00 0.00 44 1008.5
20260509210007 93 336 1.0 5.0 0.00 0.00 0.00 43 1008.7
20260509205001 90 86 0.0 4.0 0.00 0.00 0.00 45 1008.9
20260509204506 90 87 1.0 4.0 0.00 0.00 0.00 43 1008.9
20260509204001 90 96 0.0 5.0 0.00 0.00 0.00 43 1008.9
20260509203502 90 96 1.0 5.0 0.00 0.00 0.00 44 1009.0
20260509203005 90 355 1.0 4.0 0.00 0.00 0.00 46 1009.0
20260509202501 90 14 1.0 4.0 0.00 0.00 0.00 48 1009.1
20260509202001 89 345 0.0 5.0 0.00 0.00 0.00 46 1009.1
20260509201504 89 92 0.0 6.0 0.00 0.00 0.00 48 1009.3
20260509201002 89 83 2.0 4.0 0.00 0.00 0.00 46 1009.3
20260509200502 90 94 0.0 4.0 0.00 0.00 0.00 47 1009.4
20260509200006 89 86 2.0 4.0 0.00 0.00 0.00 44 1009.5
20260509195502 89 13 0.0 3.0 0.00 0.00 0.00 44 1009.5
20260509195002 89 46 1.0 4.0 0.00 0.00 0.00 48 1009.6
20260509194512 88 69 0.0 5.0 0.00 0.00 0.00 53 1009.6
20260509194001 88 60 1.0 5.0 0.00 0.00 0.00 50 1009.7
20260509193502 89 76 1.0 4.0 0.00 0.00 0.00 51 1009.7
20260509193005 89 71 0.0 3.0 0.00 0.00 0.00 51 1009.8
20260509192501 88 71 0.0 6.0 0.00 0.00 0.00 51 1009.8
20260509192001 87 79 2.0 6.0 0.00 0.00 0.00 51 1009.9
20260509191504 87 36 0.0 8.0 0.00 0.00 0.00 55 1009.9
20260509191001 86 298 1.0 8.0 0.00 0.00 0.00 57 1009.9
20260509190502 87 5 1.0 5.0 0.00 0.00 0.00 56 1009.9
20260509190006 86 355 1.0 5.0 0.00 0.00 0.00 57 1009.9
20260509185500 86 344 1.0 5.0 0.00 0.00 0.00 56 1010.0
20260509185000 86 86 0.0 6.0 0.00 0.00 0.00 59 1010.1
20260509184503 85 355 1.0 5.0 0.00 0.00 0.00 61 1010.1
20260509184000 86 78 2.0 4.0 0.00 0.00 0.00 58 1010.2
20260509183501 86 30 0.0 3.0 0.00 0.00 0.00 61 1010.2
20260509183004 85 347 1.0 4.0 0.00 0.00 0.00 61 1010.2
20260509182001 85 103 1.0 6.0 0.00 0.00 0.00 61 1010.3
20260509181503 84 69 0.0 5.0 0.00 0.00 0.00 64 1010.3
20260509181000 84 85 1.0 6.0 0.00 0.00 0.00 63 1010.4
20260509180500 84 346 2.0 6.0 0.00 0.00 0.00 63 1010.5
20260509180005 84 44 0.0 7.0 0.00 0.00 0.00 63 1010.5
20260509175000 83 49 2.0 9.0 0.00 0.00 0.00 63 1010.6
20260509174001 83 128 3.0 9.0 0.00 0.00 0.00 64 1010.6
20260509173500 83 36 2.0 9.0 0.00 0.00 0.00 63 1010.8
20260509173004 84 24 3.0 9.0 0.00 0.00 0.00 62 1010.7
20260509172001 83 80 1.0 5.0 0.00 0.00 0.00 65 1010.8
20260509171001 83 45 1.0 5.0 0.00 0.00 0.00 65 1010.9
20260509170006 83 19 2.0 6.0 0.00 0.00 0.00 65 1010.9
20260509165500 83 82 1.0 7.0 0.00 0.00 0.00 67 1010.9
20260509165000 83 348 3.0 7.0 0.00 0.00 0.00 64 1010.9
20260509164503 83 355 0.0 6.0 0.00 0.00 0.00 65 1011.0
20260509164001 83 319 0.0 6.0 0.00 0.00 0.00 66 1011.1
20260509163501 83 355 1.0 6.0 0.00 0.00 0.00 64 1011.1
20260509163004 83 83 0.0 4.0 0.00 0.00 0.00 66 1011.1
20260509162501 82 48 1.0 6.0 0.00 0.00 0.00 66 1011.2
20260509162000 82 11 2.0 6.0 0.00 0.00 0.00 67 1011.2
20260509161503 83 55 0.0 4.0 0.00 0.00 0.00 66 1011.1
20260509161001 82 34 0.0 7.0 0.00 0.00 0.00 67 1011.1
20260509160006 81 347 0.0 6.0 0.00 0.00 0.00 68 1011.0
20260509155501 80 355 0.0 6.0 0.00 0.07 0.00 70 1010.9
20260509155000 80 336 1.0 4.0 0.00 0.07 0.00 68 1010.9
20260509154506 79 320 1.0 5.0 0.00 0.07 0.00 70 1010.9
20260509154000 80 300 1.0 5.0 0.00 0.07 0.00 69 1011.0
20260509153500 80 21 0.0 2.0 0.00 0.07 0.00 70 1011.0
20260509153004 80 17 0.0 2.0 0.00 0.07 0.00 69 1011.1
20260509152500 79 330 0.0 6.0 0.00 0.07 0.00 72 1011.1
20260509151505 78 336 2.0 8.0 0.00 0.07 0.00 71 1011.1
20260509151001 78 340 1.0 8.0 0.00 0.07 0.00 73 1011.1
20260509150500 78 346 3.0 8.0 0.00 0.07 0.00 72 1011.1
20260509145500 77 325 1.0 8.0 0.00 0.07 0.00 74 1011.1
20260509144959 77 319 2.0 8.0 0.00 0.07 0.00 74 1011.1
20260509144514 76 331 4.0 8.0 0.00 0.07 0.00 75 1011.1
20260509144000 76 13 2.0 9.0 0.00 0.07 0.00 76 1011.1
20260509143003 76 348 4.0 8.0 0.00 0.07 0.00 77 1010.9
20260509142501 75 355 0.0 8.0 0.00 0.07 0.00 79 1010.9
20260509140006 73 11 1.0 6.0 0.00 0.07 0.00 83 1011.1
20260509135459 73 22 1.0 6.0 0.00 0.07 0.00 84 1011.1
20260509134959 72 350 1.0 8.0 0.00 0.07 0.00 84 1011.0
20260509134502 72 360 2.0 8.0 0.00 0.07 0.00 84 1011.0
20260509134000 72 350 3.0 8.0 0.00 0.07 0.00 84 1011.0
20260509133459 72 355 2.0 10.0 0.00 0.07 0.00 85 1010.9
20260509132459 71 5 1.0 6.0 0.00 0.07 0.00 86 1010.9
20260509132000 71 342 1.0 9.0 0.00 0.07 0.00 87 1011.0
20260509131502 70 360 3.0 9.0 0.00 0.07 0.00 87 1011.0
20260509130959 70 331 0.0 5.0 0.00 0.07 0.00 88 1011.0
20260509130500 70 348 1.0 6.0 0.00 0.07 0.00 88 1010.9
20260509130004 69 331 0.0 6.0 0.00 0.07 0.00 88 1010.9
20260509124959 69 319 1.0 8.0 0.00 0.07 0.00 88 1010.9
20260509124502 69 355 1.0 8.0 0.00 0.07 0.00 88 1010.9
20260509123959 69 294 1.0 6.0 0.00 0.07 0.00 89 1010.9
20260509123002 69 346 2.0 8.0 0.00 0.07 0.00 89 1010.9
20260509122500 69 291 0.0 3.0 0.00 0.07 0.00 90 1010.8
20260509122000 69 298 0.0 3.0 0.00 0.07 0.00 90 1010.8
20260509121502 69 292 0.0 3.0 0.00 0.07 0.00 90 1010.6
20260509120459 69 340 0.0 0.0 0.00 0.07 0.00 91 1010.8
20260509120005 69 340 0.0 0.0 0.00 0.07 0.00 91 1010.6
20260509115459 69 340 0.0 0.0 0.00 0.07 0.00 91 1010.6
20260509114959 68 341 0.0 4.0 0.00 0.07 0.00 91 1010.6
20260509113459 68 318 0.0 2.0 0.00 0.07 0.00 91 1010.3
20260509113003 68 318 0.0 3.0 0.00 0.07 0.00 92 1010.1
20260509112459 68 319 0.0 3.0 0.00 0.07 0.00 92 1009.9
20260509111959 68 68 0.0 0.0 0.00 0.07 0.00 91 1009.8
20260509111502 68 68 0.0 0.0 0.00 0.07 0.00 91 1009.9
20260509111000 67 71 0.0 0.0 0.00 0.07 0.00 91 1009.8
20260509110459 67 71 0.0 0.0 0.00 0.07 0.00 91 1009.6
20260509110004 67 82 0.0 0.0 0.00 0.07 0.00 90 1009.6
20260509105459 68 82 0.0 0.0 0.00 0.08 0.00 90 1009.5
20260509105000 68 82 0.0 0.0 0.00 0.08 0.00 90 1009.3
20260509104502 68 82 0.0 0.0 0.00 0.08 0.00 90 1009.2
20260509103959 68 82 0.0 0.0 0.00 0.08 0.00 90 1008.9
20260509103500 68 82 0.0 0.0 0.00 0.08 0.00 89 1008.9
20260509103004 69 82 0.0 0.0 0.00 0.08 0.00 89 1008.9
20260509101959 69 82 0.0 0.0 0.00 0.08 0.00 88 1008.9
20260509101503 69 82 0.0 0.0 0.00 0.08 0.00 88 1008.8
20260509101000 70 82 0.0 0.0 0.00 0.08 0.00 88 1008.8
20260509100005 70 82 0.0 0.0 0.00 0.08 0.00 87 1008.9
20260509095458 70 82 0.0 1.0 0.00 0.08 0.00 87 1008.7
20260509094958 70 76 0.0 4.0 0.00 0.08 0.00 87 1008.5
20260509094501 71 76 1.0 7.0 0.00 0.08 0.00 87 1008.4
20260509094000 71 98 0.0 4.0 0.00 0.08 0.00 87 1008.4
20260509093002 71 75 0.0 4.0 0.00 0.08 0.00 86 1008.2
20260509092458 71 91 1.0 4.0 0.00 0.08 0.00 87 1008.2
20260509091501 71 77 0.0 2.0 0.00 0.08 0.00 86 1008.2
20260509090959 71 84 0.0 2.0 0.00 0.08 0.00 86 1008.4
20260509090459 71 69 0.0 5.0 0.00 0.08 0.00 86 1008.4
20260509090004 72 69 1.0 5.0 0.00 0.08 0.00 86 1008.4
20260509085458 72 61 0.0 3.0 0.00 0.09 0.00 86 1008.3
20260509084959 72 23 0.0 5.0 0.00 0.09 0.00 85 1008.2
20260509084502 72 34 1.0 11.0 0.00 0.09 0.00 84 1008.0
20260509083958 72 37 2.0 12.0 0.00 0.09 0.00 84 1007.9
20260509083503 72 331 4.0 9.0 0.00 0.09 0.00 84 1007.8
20260509083002 72 217 0.0 6.0 0.00 0.09 0.00 83 1007.0
20260509082459 72 212 0.0 7.0 0.00 0.09 0.00 83 1006.6
20260509081958 72 209 1.0 7.0 0.00 0.09 0.00 83 1006.7
20260509081503 72 203 1.0 10.0 0.00 0.09 0.00 83 1006.8
20260509080958 72 246 1.0 10.0 0.00 0.09 0.00 84 1006.8
20260509080458 72 120 1.0 11.0 0.00 0.09 0.00 84 1007.0
20260509080004 72 220 1.0 11.0 0.00 0.09 0.00 84 1007.1
20260509074958 72 179 3.0 12.0 0.00 0.09 0.00 84 1007.6
20260509074501 72 208 6.0 14.0 0.00 0.09 0.00 84 1007.9
20260509073958 72 242 1.0 12.0 0.00 0.09 0.00 84 1008.4
20260509073458 72 237 6.0 16.0 0.00 0.09 0.00 84 1008.6
20260509073001 72 240 6.0 16.0 0.00 0.09 0.00 84 1009.0
20260509072458 71 194 1.0 12.0 0.00 0.09 0.00 85 1008.9
20260509071958 71 190 4.0 16.0 0.00 0.09 0.00 85 1009.0
20260509071501 71 241 4.0 16.0 0.00 0.09 0.00 85 1009.3
20260509070958 71 217 3.0 12.0 0.00 0.09 0.00 86 1009.3
20260509070003 70 259 4.0 12.0 0.00 0.09 0.00 86 1009.6
20260509065458 70 237 2.0 11.0 0.00 0.09 0.00 86 1009.6
20260509064957 70 242 3.0 12.0 0.00 0.09 0.00 85 1009.8
20260509064507 71 242 5.0 11.0 0.00 0.09 0.00 85 1009.8
20260509063959 71 236 3.0 10.0 0.00 0.09 0.00 85 1010.0
20260509063458 71 232 2.0 7.0 0.00 0.09 0.00 85 1010.3
20260509063001 71 222 2.0 9.0 0.00 0.09 0.00 84 1010.4
20260509061958 71 253 1.0 7.0 0.00 0.09 0.00 84 1010.5
20260509060958 71 252 3.0 8.0 0.00 0.09 0.00 84 1010.4
20260509060458 71 248 1.0 8.0 0.00 0.09 0.00 84 1010.4
20260509060009 71 232 2.0 7.0 0.00 0.09 0.00 84 1010.3
20260509055504 71 227 3.0 8.0 0.00 0.09 0.00 84 1010.2
20260509055004 70 236 1.0 5.0 0.00 0.09 0.00 85 1010.2
20260509054507 70 267 1.0 3.0 0.00 0.09 0.00 84 1010.2
20260509054004 70 267 0.0 2.0 0.00 0.09 0.00 84 1010.4
20260509053505 71 267 0.0 2.0 0.00 0.09 0.00 83 1010.4
20260509053008 71 267 0.0 0.0 0.00 0.09 0.00 83 1010.4
20260509052505 71 267 0.0 0.0 0.00 0.09 0.00 82 1010.7
20260509052004 71 267 0.0 0.0 0.00 0.09 0.00 82 1010.8
20260509051508 72 267 0.0 0.0 0.00 0.09 0.00 82 1011.1
20260509051005 72 267 0.0 1.0 0.00 0.09 0.00 82 1011.5
20260509050503 72 267 0.0 4.0 0.00 0.09 0.00 81 1011.3
20260509050011 72 327 1.0 4.0 0.00 0.09 0.00 82 1011.9
20260509045503 71 326 0.0 5.0 0.00 0.09 0.09 82 1011.9
20260509045003 71 324 1.0 6.0 0.00 0.09 0.09 82 1012.1
20260509044506 71 350 1.0 6.0 0.00 0.09 0.09 82 1012.0
20260509044003 71 241 0.0 2.0 0.00 0.09 0.09 81 1011.2
20260509043503 72 216 0.0 0.0 0.00 0.09 0.09 81 1010.4
20260509043006 72 216 0.0 2.0 0.00 0.09 0.09 81 1010.3
20260509042502 72 216 0.0 2.0 0.00 0.09 0.09 81 1010.3
20260509042003 72 215 0.0 0.0 0.00 0.09 0.09 80 1010.4
20260509041003 72 216 0.0 0.0 0.00 0.09 0.09 80 1010.5
20260509040504 72 216 0.0 1.0 0.00 0.09 0.09 80 1010.6
20260509040008 72 216 0.0 1.0 0.00 0.09 0.09 80 1010.5
20260509035503 72 216 0.0 1.0 0.00 0.09 0.09 80 1010.0
20260509035002 72 216 0.0 3.0 0.00 0.09 0.09 81 1009.9
20260509034004 72 125 0.0 2.0 0.00 0.09 0.09 80 1009.6
20260509033504 72 125 0.0 4.0 0.00 0.09 0.09 80 1009.6
20260509033007 72 200 0.0 4.0 0.00 0.09 0.09 80 1009.4
20260509032503 72 178 1.0 4.0 0.00 0.09 0.09 80 1009.4
20260509032003 72 115 0.0 1.0 0.00 0.09 0.09 80 1010.0
20260509031506 72 28 0.0 0.0 0.00 0.09 0.09 80 1010.6
20260509031003 72 28 0.0 2.0 0.00 0.09 0.09 81 1010.9
20260509030503 72 42 0.0 2.0 0.00 0.09 0.09 81 1011.0
20260509025502 72 142 0.0 1.0 0.00 0.09 0.09 80 1010.6
20260509024002 72 149 0.0 0.0 0.00 0.09 0.09 79 1009.8
20260509023503 72 149 0.0 0.0 0.00 0.09 0.09 79 1009.7
20260509023006 73 149 0.0 0.0 0.00 0.09 0.09 79 1009.6
20260509022502 73 149 0.0 1.0 0.00 0.09 0.09 79 1009.3
20260509022003 73 146 0.0 4.0 0.00 0.09 0.09 79 1008.9
20260509021506 73 146 0.0 4.0 0.00 0.09 0.09 78 1008.8
20260509021003 73 134 0.0 3.0 0.00 0.09 0.09 78 1008.5
20260509020008 73 157 0.0 3.0 0.00 0.09 0.09 78 1008.3
20260509015503 73 170 0.0 3.0 0.00 0.09 0.09 78 1008.4
20260509014506 73 153 0.0 5.0 0.00 0.09 0.09 77 1008.5
20260509014002 73 218 0.0 5.0 0.00 0.09 0.09 77 1008.3
20260509013006 73 171 0.0 1.0 0.00 0.09 0.09 76 1008.4
20260509012502 74 171 0.0 3.0 0.00 0.09 0.09 75 1008.6
20260509012002 74 170 0.0 5.0 0.00 0.09 0.09 75 1008.7
20260509011506 74 180 0.0 5.0 0.00 0.09 0.09 74 1008.8
20260509010502 74 246 2.0 8.0 0.00 0.09 0.09 74 1008.8
20260509010008 74 200 1.0 6.0 0.00 0.09 0.09 73 1008.8
20260509005503 75 211 2.0 6.0 0.00 0.09 0.09 73 1008.7
20260509005002 75 186 0.0 3.0 0.00 0.09 0.09 73 1008.7
20260509003006 75 183 1.0 8.0 0.00 0.09 0.09 71 1008.2
20260509002503 76 188 2.0 8.0 0.00 0.09 0.09 70 1008.2
20260509002002 76 153 0.0 8.0 0.00 0.09 0.09 71 1008.1
20260509001003 76 218 3.0 9.0 0.00 0.09 0.09 70 1008.0
20260509000502 76 173 3.0 8.0 0.00 0.09 0.09 70 1008.1
20260509000008 76 226 3.0 8.0 0.00 0.09 0.09 69 1008.1
20260508235501 76 235 1.0 8.0 0.00 0.09 0.09 69 1008.1
20260508234505 76 167 1.0 11.0 0.00 0.09 0.09 69 1008.3
20260508234001 76 91 3.0 11.0 0.00 0.09 0.09 68 1008.3
20260508233005 77 149 1.0 9.0 0.00 0.09 0.09 68 1008.5
20260508232503 77 202 2.0 9.0 0.00 0.09 0.09 66 1008.5